| time (UTC) | temp F | wind direction | speed MPH | gust MPH | rain 1hr in | rain 24hr in | rain mn in | humidity % | barometer mb |
| 20260510004018 | 64 | 173 | 0.0 | 0.0 | 0.00 | 0.00 | 0.00 | 79 | 1009.5 |
| 20260510003057 | 64 | 173 | 0.0 | 0.0 | 0.00 | 0.00 | 0.00 | 79 | 1009.4 |
| 20260510002022 | 65 | 173 | 0.0 | 0.0 | 0.00 | 0.00 | 0.00 | 78 | 1009.4 |
| 20260510001016 | 65 | 173 | 0.0 | 0.0 | 0.00 | 0.00 | 0.00 | 77 | 1009.4 |
| 20260510000021 | 66 | 173 | 0.0 | 0.0 | 0.00 | 0.00 | 0.00 | 76 | 1009.2 |
| 20260509235015 | 66 | 173 | 0.0 | 0.0 | 0.00 | 0.00 | 0.00 | 75 | 1009.1 |
| 20260509234028 | 67 | 173 | 0.0 | 0.0 | 0.00 | 0.00 | 0.00 | 73 | 1009.1 |
| 20260509233023 | 67 | 173 | 0.0 | 0.0 | 0.00 | 0.00 | 0.00 | 71 | 1008.9 |
| 20260509232017 | 68 | 173 | 0.0 | 0.0 | 0.00 | 0.00 | 0.00 | 71 | 1008.8 |
| 20260509231032 | 68 | 173 | 0.0 | 1.0 | 0.00 | 0.00 | 0.00 | 71 | 1008.9 |
| 20260509230019 | 69 | 173 | 0.0 | 0.0 | 0.00 | 0.00 | 0.00 | 71 | 1008.8 |
| 20260509225030 | 69 | 173 | 0.0 | 0.0 | 0.00 | 0.00 | 0.00 | 70 | 1008.7 |
| 20260509224024 | 69 | 173 | 0.0 | 0.0 | 0.00 | 0.00 | 0.00 | 70 | 1008.9 |
| 20260509223039 | 70 | 173 | 0.0 | 0.0 | 0.00 | 0.00 | 0.00 | 69 | 1008.9 |
| 20260509222054 | 70 | 173 | 0.0 | 1.0 | 0.00 | 0.00 | 0.00 | 68 | 1008.9 |
| 20260509221028 | 70 | 173 | 0.0 | 0.0 | 0.00 | 0.00 | 0.00 | 69 | 1009.0 |
| 20260509220033 | 70 | 173 | 0.0 | 0.0 | 0.00 | 0.00 | 0.00 | 70 | 1008.9 |
| 20260509215027 | 69 | 173 | 0.0 | 1.0 | 0.00 | 0.00 | 0.00 | 70 | 1009.0 |
| 20260509214040 | 70 | 158 | 0.0 | 0.0 | 0.00 | 0.00 | 0.00 | 69 | 1009.0 |
| 20260509213052 | 69 | 158 | 0.0 | 0.0 | 0.00 | 0.00 | 0.00 | 71 | 1009.1 |
| 20260509212016 | 69 | 158 | 0.0 | 0.0 | 0.00 | 0.00 | 0.00 | 69 | 1009.1 |
| 20260509211039 | 69 | 158 | 0.0 | 1.0 | 0.00 | 0.00 | 0.00 | 70 | 1009.0 |
| 20260509210016 | 68 | 150 | 0.0 | 0.0 | 0.00 | 0.00 | 0.00 | 71 | 1008.9 |
| 20260509205040 | 68 | 150 | 0.0 | 0.0 | 0.00 | 0.00 | 0.00 | 70 | 1008.9 |
| 20260509204024 | 68 | 150 | 0.0 | 3.0 | 0.00 | 0.00 | 0.00 | 69 | 1008.6 |
| 20260509203017 | 68 | 155 | 0.0 | 0.0 | 0.00 | 0.00 | 0.00 | 71 | 1008.7 |
| 20260509202031 | 68 | 156 | 0.0 | 0.0 | 0.00 | 0.00 | 0.00 | 72 | 1008.9 |
| 20260509201025 | 68 | 155 | 0.0 | 0.0 | 0.00 | 0.00 | 0.00 | 74 | 1009.0 |
| 20260509200012 | 68 | 155 | 1.0 | 5.0 | 0.00 | 0.00 | 0.00 | 72 | 1009.2 |
| 20260509195022 | 67 | 265 | 0.0 | 0.0 | 0.00 | 0.00 | 0.00 | 77 | 1009.4 |
| 20260509194016 | 67 | 265 | 0.0 | 1.0 | 0.00 | 0.00 | 0.00 | 76 | 1009.7 |
| 20260509193031 | 67 | 263 | 0.0 | 0.0 | 0.00 | 0.00 | 0.00 | 81 | 1009.7 |
| 20260509192018 | 65 | 263 | 0.0 | 0.0 | 0.00 | 0.00 | 0.00 | 80 | 1009.7 |
| 20260509191027 | 65 | 263 | 0.0 | 0.0 | 0.00 | 0.00 | 0.00 | 81 | 1009.9 |
| 20260509190013 | 65 | 263 | 0.0 | 0.0 | 0.00 | 0.00 | 0.00 | 78 | 1009.8 |
| 20260509185036 | 65 | 263 | 0.0 | 0.0 | 0.00 | 0.00 | 0.00 | 76 | 1010.0 |
| 20260509184021 | 65 | 263 | 0.0 | 0.0 | 0.00 | 0.00 | 0.00 | 76 | 1009.8 |
| 20260509183015 | 65 | 263 | 0.0 | 0.0 | 0.00 | 0.00 | 0.00 | 76 | 1010.1 |
| 20260509182029 | 65 | 263 | 0.0 | 0.0 | 0.00 | 0.00 | 0.00 | 76 | 1010.2 |
| 20260509181023 | 65 | 263 | 0.0 | 0.0 | 0.00 | 0.00 | 0.00 | 75 | 1010.5 |
| 20260509180050 | 65 | 263 | 0.0 | 0.0 | 0.00 | 0.00 | 0.00 | 75 | 1010.5 |
| 20260509175052 | 65 | 263 | 0.0 | 0.0 | 0.00 | 0.00 | 0.00 | 75 | 1010.5 |
| 20260509174016 | 65 | 263 | 0.0 | 0.0 | 0.00 | 0.00 | 0.00 | 74 | 1010.5 |
| 20260509173029 | 65 | 263 | 0.0 | 0.0 | 0.00 | 0.00 | 0.00 | 73 | 1010.5 |
| 20260509172024 | 66 | 263 | 0.0 | 0.0 | 0.00 | 0.00 | 0.00 | 72 | 1010.5 |
| 20260509171018 | 66 | 263 | 0.0 | 0.0 | 0.00 | 0.00 | 0.00 | 71 | 1010.7 |
| 20260509170023 | 66 | 263 | 0.0 | 0.0 | 0.00 | 0.00 | 0.00 | 71 | 1010.6 |
| 20260509165017 | 66 | 263 | 0.0 | 0.0 | 0.00 | 0.00 | 0.00 | 71 | 1010.5 |
| 20260509164031 | 66 | 263 | 0.0 | 0.0 | 0.00 | 0.00 | 0.00 | 70 | 1010.6 |
| 20260509163046 | 67 | 263 | 0.0 | 0.0 | 0.00 | 0.00 | 0.00 | 69 | 1010.6 |
| 20260509162018 | 67 | 263 | 0.0 | 0.0 | 0.00 | 0.00 | 0.00 | 68 | 1010.8 |
| 20260509161033 | 67 | 263 | 0.0 | 0.0 | 0.00 | 0.00 | 0.00 | 66 | 1010.9 |
| 20260509160020 | 68 | 263 | 0.0 | 1.0 | 0.00 | 0.00 | 0.00 | 66 | 1011.0 |
| 20260509155014 | 68 | 263 | 0.0 | 1.0 | 0.00 | 0.00 | 0.00 | 67 | 1011.0 |
| 20260509154024 | 68 | 263 | 0.0 | 1.0 | 0.00 | 0.00 | 0.00 | 68 | 1010.9 |
| 20260509153038 | 68 | 262 | 0.0 | 1.0 | 0.00 | 0.00 | 0.00 | 65 | 1011.1 |
| 20260509152022 | 67 | 262 | 0.0 | 3.0 | 0.00 | 0.00 | 0.00 | 68 | 1011.2 |
| 20260509151012 | 66 | 262 | 0.0 | 1.0 | 0.00 | 0.00 | 0.00 | 69 | 1011.5 |
| 20260509150019 | 65 | 262 | 0.0 | 4.0 | 0.00 | 0.00 | 0.00 | 70 | 1011.8 |
| 20260509145034 | 64 | 260 | 0.0 | 4.0 | 0.00 | 0.00 | 0.00 | 69 | 1011.8 |
| 20260509144033 | 64 | 261 | 0.0 | 3.0 | 0.00 | 0.00 | 0.00 | 69 | 1011.8 |
| 20260509143017 | 64 | 256 | 0.0 | 5.0 | 0.00 | 0.00 | 0.00 | 69 | 1011.8 |
| 20260509142032 | 64 | 265 | 1.0 | 6.0 | 0.00 | 0.00 | 0.00 | 69 | 1011.8 |
| 20260509141025 | 63 | 243 | 1.0 | 4.0 | 0.00 | 0.00 | 0.00 | 71 | 1011.7 |
| 20260509135035 | 63 | 251 | 0.0 | 4.0 | 0.00 | 0.00 | 0.00 | 71 | 1011.8 |
| 20260509134014 | 63 | 246 | 0.0 | 3.0 | 0.00 | 0.00 | 0.00 | 71 | 1011.8 |
| 20260509133100 | 62 | 246 | 1.0 | 5.0 | 0.00 | 0.00 | 0.00 | 71 | 1011.7 |
| 20260509132025 | 62 | 238 | 1.0 | 4.0 | 0.00 | 0.00 | 0.00 | 71 | 1011.8 |
| 20260509131015 | 61 | 252 | 0.0 | 6.0 | 0.00 | 0.00 | 0.00 | 72 | 1011.6 |
| 20260509130050 | 61 | 165 | 0.0 | 4.0 | 0.00 | 0.00 | 0.00 | 72 | 1011.5 |
| 20260509125041 | 61 | 145 | 1.0 | 8.0 | 0.00 | 0.00 | 0.00 | 72 | 1011.5 |
| 20260509124013 | 61 | 142 | 0.0 | 5.0 | 0.00 | 0.00 | 0.00 | 72 | 1011.5 |
| 20260509123044 | 60 | 200 | 1.0 | 6.0 | 0.00 | 0.00 | 0.00 | 73 | 1011.5 |
| 20260509122017 | 60 | 119 | 0.0 | 3.0 | 0.00 | 0.00 | 0.00 | 73 | 1011.4 |
| 20260509121031 | 60 | 113 | 1.0 | 5.0 | 0.00 | 0.00 | 0.00 | 72 | 1011.4 |
| 20260509120039 | 60 | 100 | 1.0 | 6.0 | 0.00 | 0.00 | 0.00 | 72 | 1011.5 |
| 20260509115101 | 60 | 182 | 1.0 | 9.0 | 0.00 | 0.00 | 0.00 | 72 | 1011.5 |
| 20260509114025 | 59 | 159 | 1.0 | 6.0 | 0.00 | 0.00 | 0.00 | 72 | 1011.4 |
| 20260509113020 | 59 | 113 | 1.0 | 7.0 | 0.00 | 0.00 | 0.00 | 72 | 1011.4 |
| 20260509112053 | 59 | 186 | 1.0 | 7.0 | 0.00 | 0.00 | 0.00 | 72 | 1011.4 |
| 20260509111026 | 59 | 221 | 0.0 | 3.0 | 0.00 | 0.00 | 0.00 | 71 | 1011.4 |
| 20260509110042 | 59 | 234 | 0.0 | 5.0 | 0.00 | 0.00 | 0.00 | 71 | 1011.4 |
| 20260509105025 | 59 | 157 | 0.0 | 3.0 | 0.00 | 0.00 | 0.00 | 69 | 1011.3 |
| 20260509104020 | 59 | 154 | 0.0 | 0.0 | 0.00 | 0.00 | 0.00 | 67 | 1011.2 |
| 20260509103054 | 59 | 154 | 0.0 | 1.0 | 0.00 | 0.00 | 0.00 | 67 | 1011.4 |
| 20260509102026 | 59 | 153 | 0.0 | 0.0 | 0.00 | 0.00 | 0.00 | 67 | 1011.3 |
| 20260509101022 | 59 | 153 | 0.0 | 2.0 | 0.00 | 0.00 | 0.00 | 66 | 1011.0 |
| 20260509100057 | 59 | 170 | 1.0 | 4.0 | 0.00 | 0.00 | 0.00 | 67 | 1011.1 |
| 20260509095019 | 59 | 165 | 0.0 | 0.0 | 0.00 | 0.00 | 0.00 | 66 | 1011.2 |
| 20260509094026 | 59 | 165 | 0.0 | 3.0 | 0.00 | 0.00 | 0.00 | 66 | 1011.2 |
| 20260509093020 | 59 | 165 | 0.0 | 5.0 | 0.00 | 0.00 | 0.00 | 66 | 1011.3 |
| 20260509092033 | 59 | 165 | 0.0 | 5.0 | 0.00 | 0.00 | 0.00 | 66 | 1011.2 |
| 20260509091027 | 59 | 186 | 0.0 | 5.0 | 0.00 | 0.00 | 0.00 | 67 | 1011.1 |
| 20260509090015 | 59 | 185 | 0.0 | 3.0 | 0.00 | 0.00 | 0.00 | 66 | 1011.2 |
| 20260509085029 | 59 | 185 | 0.0 | 3.0 | 0.00 | 0.00 | 0.00 | 66 | 1011.3 |
| 20260509084022 | 59 | 186 | 1.0 | 4.0 | 0.00 | 0.00 | 0.00 | 66 | 1011.5 |
| 20260509083036 | 59 | 197 | 1.0 | 6.0 | 0.00 | 0.00 | 0.00 | 66 | 1011.6 |
| 20260509082020 | 59 | 187 | 0.0 | 4.0 | 0.00 | 0.00 | 0.00 | 66 | 1011.8 |
| 20260509081013 | 59 | 186 | 1.0 | 3.0 | 0.00 | 0.00 | 0.00 | 66 | 1011.9 |
| 20260509080020 | 59 | 186 | 0.0 | 5.0 | 0.00 | 0.00 | 0.00 | 66 | 1011.8 |
| 20260509075014 | 58 | 182 | 1.0 | 5.0 | 0.00 | 0.00 | 0.00 | 67 | 1011.8 |
| 20260509074027 | 58 | 178 | 0.0 | 3.0 | 0.00 | 0.00 | 0.00 | 67 | 1011.8 |
| 20260509073022 | 58 | 185 | 1.0 | 5.0 | 0.00 | 0.00 | 0.00 | 68 | 1011.7 |
| 20260509072017 | 58 | 183 | 0.0 | 3.0 | 0.00 | 0.00 | 0.00 | 68 | 1011.8 |
| 20260509071030 | 58 | 184 | 0.0 | 1.0 | 0.00 | 0.00 | 0.00 | 69 | 1011.8 |
| 20260509070017 | 57 | 184 | 0.0 | 4.0 | 0.00 | 0.00 | 0.00 | 69 | 1012.0 |
| 20260509065052 | 57 | 183 | 0.0 | 3.0 | 0.00 | 0.00 | 0.00 | 70 | 1012.0 |
| 20260509064024 | 57 | 182 | 0.0 | 3.0 | 0.00 | 0.00 | 0.00 | 70 | 1011.9 |
| 20260509063018 | 57 | 182 | 0.0 | 0.0 | 0.00 | 0.00 | 0.00 | 70 | 1012.2 |
| 20260509062031 | 57 | 182 | 0.0 | 0.0 | 0.00 | 0.00 | 0.00 | 70 | 1012.2 |
| 20260509061016 | 57 | 182 | 0.0 | 0.0 | 0.00 | 0.00 | 0.00 | 69 | 1012.3 |
| 20260509060033 | 58 | 182 | 0.0 | 1.0 | 0.00 | 0.00 | 0.00 | 69 | 1012.4 |
| 20260509055019 | 58 | 182 | 0.0 | 3.0 | 0.00 | 0.00 | 0.00 | 69 | 1012.5 |
| 20260509054043 | 58 | 182 | 0.0 | 2.0 | 0.00 | 0.00 | 0.00 | 69 | 1012.5 |
| 20260509053034 | 58 | 181 | 0.0 | 4.0 | 0.00 | 0.00 | 0.00 | 68 | 1012.5 |
| 20260509052020 | 58 | 180 | 0.0 | 2.0 | 0.00 | 0.00 | 0.00 | 67 | 1012.3 |
| 20260509051014 | 58 | 181 | 0.0 | 3.0 | 0.00 | 0.00 | 0.00 | 67 | 1012.3 |
| 20260509050017 | 58 | 182 | 0.0 | 1.0 | 0.00 | 0.00 | 0.00 | 67 | 1012.3 |
| 20260509045031 | 59 | 181 | 0.0 | 4.0 | 0.00 | 0.00 | 0.00 | 67 | 1012.4 |
| 20260509044027 | 59 | 182 | 0.0 | 6.0 | 0.00 | 0.00 | 0.00 | 67 | 1012.5 |
| 20260509043020 | 59 | 155 | 1.0 | 5.0 | 0.00 | 0.00 | 0.00 | 68 | 1012.5 |
| 20260509042014 | 58 | 145 | 0.0 | 5.0 | 0.00 | 0.00 | 0.00 | 69 | 1012.4 |
| 20260509041048 | 58 | 137 | 0.0 | 4.0 | 0.00 | 0.00 | 0.00 | 70 | 1012.3 |
| 20260509040014 | 58 | 148 | 1.0 | 4.0 | 0.00 | 0.00 | 0.00 | 72 | 1012.4 |
| 20260509035027 | 59 | 128 | 0.0 | 0.0 | 0.00 | 0.00 | 0.00 | 73 | 1012.5 |
| 20260509034021 | 59 | 128 | 0.0 | 2.0 | 0.00 | 0.00 | 0.00 | 74 | 1012.5 |
| 20260509033016 | 59 | 125 | 0.0 | 2.0 | 0.00 | 0.00 | 0.00 | 75 | 1012.7 |
| 20260509032050 | 59 | 119 | 0.0 | 1.0 | 0.00 | 0.00 | 0.00 | 75 | 1012.7 |
| 20260509031025 | 59 | 119 | 0.0 | 3.0 | 0.00 | 0.00 | 0.00 | 75 | 1012.7 |
| 20260509030032 | 60 | 136 | 0.0 | 0.0 | 0.00 | 0.00 | 0.00 | 75 | 1012.7 |
| 20260509025027 | 60 | 136 | 0.0 | 1.0 | 0.00 | 0.00 | 0.00 | 75 | 1012.8 |
| 20260509024041 | 60 | 136 | 0.0 | 0.0 | 0.00 | 0.00 | 0.00 | 75 | 1012.7 |
| 20260509023024 | 60 | 136 | 0.0 | 2.0 | 0.00 | 0.00 | 0.00 | 75 | 1012.8 |
| 20260509022018 | 61 | 136 | 0.0 | 0.0 | 0.00 | 0.00 | 0.00 | 74 | 1012.6 |
| 20260509021013 | 61 | 136 | 0.0 | 1.0 | 0.00 | 0.00 | 0.00 | 73 | 1012.7 |
| 20260509020020 | 62 | 134 | 0.0 | 1.0 | 0.00 | 0.00 | 0.00 | 71 | 1012.6 |
| 20260509015034 | 62 | 134 | 0.0 | 3.0 | 0.00 | 0.00 | 0.00 | 69 | 1012.6 |
| 20260509014027 | 62 | 155 | 0.0 | 1.0 | 0.00 | 0.00 | 0.00 | 68 | 1012.6 |
| 20260509013021 | 62 | 153 | 0.0 | 1.0 | 0.00 | 0.00 | 0.00 | 67 | 1012.7 |
| 20260509012015 | 62 | 154 | 0.0 | 0.0 | 0.00 | 0.00 | 0.00 | 67 | 1012.6 |
| 20260509011030 | 62 | 154 | 0.0 | 1.0 | 0.00 | 0.00 | 0.00 | 66 | 1012.4 |
| 20260509010015 | 62 | 154 | 0.0 | 0.0 | 0.00 | 0.00 | 0.00 | 65 | 1012.4 |
| 20260509005045 | 63 | 154 | 0.0 | 2.0 | 0.00 | 0.00 | 0.00 | 65 | 1012.4 |